Location: Unspecified
(38.9820°N, 94.4650°W)
Time: 09:41:33
(UTC-05:00)

Resurs 1-4 Rocket - Visible Passes

Search period start: 21 April 2015 00:00
Search period end: 01 May 2015 00:00
Orbit: 799 x 815 km, 98.4° (Epoch: 20 April)

Date Brightness Start Highest point End Pass type
(mag) Time Alt. Az. Time Alt. Az. Time Alt. Az.
21 Apr 2.0 05:00:27 10° NNE 05:05:44 86° WNW 05:10:23 14° SSW visible
22 Apr 2.7 04:36:04 10° NNE 04:41:14 56° E 04:45:43 14° S visible
23 Apr 3.6 04:11:57 10° NNE 04:16:38 33° E 04:21:02 12° SSE visible
23 Apr 3.1 05:51:55 10° N 05:56:27 29° WNW 06:00:54 10° SW visible
24 Apr 4.3 03:48:16 10° NE 03:51:54 19° E 03:55:44 10° SE visible
24 Apr 2.4 05:27:02 10° N 05:32:06 49° WNW 05:37:09 10° SW visible
25 Apr 4.8 03:26:01 10° ENE 03:27:03 11° E 03:28:29 10° ESE visible
25 Apr 2.0 05:02:24 10° N 05:07:42 82° WNW 05:12:45 11° SSW visible
26 Apr 2.6 04:37:59 10° NNE 04:43:12 59° E 04:48:04 12° S visible
27 Apr 3.5 04:13:51 10° NNE 04:18:37 34° E 04:23:23 10° SSE visible
27 Apr 3.1 05:53:54 10° N 05:58:23 28° WNW 06:02:46 10° SW visible
28 Apr 4.3 03:50:07 10° NE 03:53:54 20° E 03:57:51 10° SE visible
28 Apr 2.5 05:29:01 10° N 05:34:03 46° WNW 05:39:04 10° SW visible
29 Apr 4.7 03:27:30 10° ENE 03:29:04 11° E 03:30:59 10° ESE visible
29 Apr 2.1 05:04:22 10° N 05:09:39 78° WNW 05:14:56 10° SSW visible
30 Apr 2.5 04:39:56 10° NNE 04:45:10 62° E 04:50:23 10° S visible
